Location: Krasnoyarskiy Pitomnik
(51.1333°N, 71.6167°E)
Time: 09:29:40
(UTC+00:00)

ARIANE 5 R/B - Pass Details

Date: 22 October 2021
Orbit: 749 x 794 km, 98.7° (Epoch: 06 December)

Event Time Altitude Azimuth Distance (km) Brightness Sun altitude
Rises 23:30:24 0° 11° (N) 3,210 6.0 -22.5°
Reaches altitude 10° 23:32:46 10° 5° (N) 2,282 5.1 -22.2°
Maximum altitude 23:37:31 45° 294° (WNW) 1,026 2.7 -21.4°
Enters shadow 23:37:33 45° 293° (WNW) 1,026 2.7 -21.4°
